Owen Roberts, Cayman Islands

11:58 AM EST on September 27, 2016 (GMT -0500)
Roberts International

Weather History for MWCR - October, 2013

Change the Weather History Date:

Sunday, October 6, 2013

  Actual Average Record
Temperature  
Mean Temperature 82 °F -  
Max Temperature 88 °F 87 °F 91 °F (2001)
Min Temperature 77 °F 78 °F 77 °F (1997)
Cooling Degree Days 18    
Growing Degree Days 32 (Base 50)    
Moisture  
Dew Point 79 °F    
Average Humidity 85    
Maximum Humidity 100    
Minimum Humidity 70    
Precipitation  
Precipitation 0.01 in - - ()
Sea Level Pressure  
Sea Level Pressure 29.91 in    
Wind  
Wind Speed 2 mph ()    
Max Wind Speed 6 mph    
Max Gust Speed -    
Visibility 6.2 miles    
Events      
Averages and records for this station are not official NWS values.
T = Trace of Precipitation, MM = Missing Value Source: Averaged Metar Reports

Daily Weather History Graph

Daily Weather History Graph

Search for Another Location

Airport or City:

Trip Planner

Search our weather history database for the weather conditions in past years. The results will help you decide how hot, cold, wet, or windy it might be!

Date:

Astronomy

Oct. 06, 2013 Rise Set
Actual Time 6:17 AM EST 6:09 PM EST
Civil Twilight 5:55 AM EST 6:31 PM EST
Nautical Twilight 5:29 AM EST 6:56 PM EST
Astronomical Twilight 5:04 AM EST 7:22 PM EST
Moon 7:42 AM EST (10/6) 7:27 PM EST (10/6)
Length of Visible Light 12h 35m
Length of Day
11h 51m
Waxing Crescent, 3% of the Moon is Illuminated
Oct 6
Waxing Crescent
Oct 11
First Quarter
Oct 18
Full
Oct 26
Last Quarter
Nov 3
New

Hourly Weather History & Observations

Time (EST) Temp. Heat Index Dew Point Humidity Pressure Visibility Wind Dir Wind Speed Gust Speed Precip Events Conditions
6:36 AM 78.8 °F - 78.8 °F 100% 29.89 in 6.2 mi Variable 1.2 mph - N/A   Partly Cloudy
7:00 AM 79 °F - 79 °F 99% 29.91 in 6 mi East 2.3 mph - -   Partly Cloudy
7:00 AM 78.8 °F - 78.8 °F 100% 29.89 in 6.2 mi Variable 2.3 mph - N/A   Partly Cloudy
8:00 AM 84.2 °F 96.1 °F 78.8 °F 84% 29.92 in 6.2 mi East 3.5 mph - N/A   Partly Cloudy
9:00 AM 86.0 °F 101.9 °F 80.6 °F 84% 29.92 in 6.2 mi Variable 2.3 mph - N/A   Partly Cloudy
10:00 AM 86.0 °F 99.3 °F 78.8 °F 79% 29.95 in 6.2 mi ENE 3.5 mph - N/A   Partly Cloudy
11:00 AM 87.8 °F 102.5 °F 78.8 °F 75% 29.95 in 6.2 mi SE 5.8 mph - N/A   Partly Cloudy
12:00 PM 86.0 °F 99.3 °F 78.8 °F 79% 29.92 in 6.2 mi NE 4.6 mph - N/A   Scattered Clouds
1:00 PM 87 °F - 79 °F 70% 29.92 in 6 mi NNE 3.5 mph - -   Partly Cloudy
1:00 PM 86.0 °F 99.3 °F 78.8 °F 79% 29.92 in 6.2 mi NNE 3.5 mph - N/A   Scattered Clouds
2:00 PM 86.0 °F 99.3 °F 78.8 °F 79% 29.89 in 6.2 mi ENE 3.5 mph - N/A   Mostly Cloudy
3:00 PM 86.0 °F 99.3 °F 78.8 °F 79% 29.86 in 6.2 mi ENE 2.3 mph - N/A   Scattered Clouds
4:00 PM 86.0 °F 99.3 °F 78.8 °F 79% 29.86 in 6.2 mi NE 4.6 mph - N/A   Mostly Cloudy
5:00 PM 82.4 °F 94.0 °F 80.6 °F 94% 29.86 in 6.2 mi West 5.8 mph - N/A   Mostly Cloudy
6:00 PM 84.2 °F 96.1 °F 78.8 °F 84% 29.89 in 6.2 mi Calm Calm - N/A   Partly Cloudy
7:00 PM 83 °F - 78 °F 82% 29.90 in 6 mi East 3.5 mph - -   Partly Cloudy
7:00 PM 82.4 °F 92.4 °F 78.8 °F 89% 29.89 in 6.2 mi East 3.5 mph - N/A   Scattered Clouds
8:00 PM 82.4 °F 92.4 °F 78.8 °F 89% 29.92 in 6.2 mi Calm Calm - N/A   Partly Cloudy
9:00 PM 80.6 °F 87.1 °F 77.0 °F 89% 29.92 in 6.2 mi Calm Calm - N/A   Partly Cloudy
10:00 PM 80.6 °F 87.1 °F 77.0 °F 89% 29.95 in 6.2 mi SE 3.5 mph - N/A   Partly Cloudy